{"data":{"norad_id":69880,"epoch":"2026-09-20T03:57:18.599040Z","epoch_age_seconds":50592,"freshness":"FRESH","line1":"1 69880U 26156M   26263.16479860  .00001110  00000+0  11722-3 0  9999","line2":"2 69880  97.7366 162.2105 0003444 218.3272 141.7702 14.91215874 11150","mean_motion":14.91215874,"eccentricity":0.0003444,"inclination_deg":97.7366,"raan_deg":162.2105,"arg_perigee_deg":218.3272,"mean_anomaly_deg":141.7702,"bstar":0.00011722,"rev_number":1115,"period_min":96.565495654052,"perigee_km":591.74190119205,"apogee_km":596.54440776245,"semimajor_km":6972.2801544773,"source":"CELESTRAK","updated_at":"2026-09-20T09:00:25.165262Z"}}